Wind_Speed
34 34 34 34 34 35 35 35 36 36 36 36 36 37 38 39 40 41 41 42 43 45 46 47 47 48 49 50 50 51 52 53 54 54 56 57 60 61 63 64 65 66 67
33 32 32 33 34 34 35 35 35 35 36 36 36 37 38 39 40 41 42 43 45 46 46 47 49 50 51 51 52 53 55 56 57 57 59 61 63 64 65 66 67 69 70
32 32 32 33 33 33 34 34 34 35 35 36 36 37 38 39 40 41 43 44 45 46 47 49 50 51 52 53 54 56 57 59 60 62 63 64 65 66 67 68 70 71 72
31 31 32 32 32 32 32 33 33 34 35 35 36 38 39 40 41 42 43 44 45 47 48 50 52 53 54 55 57 58 60 61 63 65 66 66 67 68 69 70 70 71 72
30 30 31 31 31 31 32 32 33 34 35 36 37 38 39 41 42 43 44 45 46 48 50 51 53 54 56 57 59 60 62 64 65 67 67 67 68 69 71 71 71 71 70
30 30 30 31 31 31 31 32 33 34 35 36 37 38 40 41 42 43 44 46 47 49 51 53 54 55 57 59 61 63 65 66 68 68 69 69 70 71 71 71 71 70 68
29 30 30 30 30 31 32 33 33 34 36 36 37 39 40 41 43 44 45 47 48 50 52 53 55 56 59 61 62 64 66 68 70 70 70 71 71 71 71 70 69 68 67
29 29 29 30 31 32 32 32 33 35 36 37 38 39 40 42 43 45 46 48 50 51 53 54 56 58 60 62 64 66 67 68 69 70 71 71 70 70 69 68 67 65 63
28 29 30 30 31 32 32 33 34 35 36 37 38 39 41 42 44 46 47 49 50 52 53 55 58 60 62 64 66 67 67 68 69 70 70 69 68 68 68 67 64 62 59
29 29 30 30 31 32 33 34 35 35 36 37 38 40 41 43 45 46 48 50 51 52 54 57 59 61 63 65 67 67 68 68 69 68 67 67 66 66 65 64 61 58 56
29 29 30 30 31 32 33 34 34 35 36 38 39 41 43 45 46 47 49 51 52 54 56 58 60 62 64 66 67 68 68 68 67 66 65 64 64 63 61 59 57 54 52
29 29 30 31 32 33 33 34 34 36 37 39 41 42 44 45 46 48 50 51 53 55 57 59 61 63 65 66 67 67 67 67 65 64 63 62 61 59 57 55 53 51 49
29 30 31 32 33 33 34 34 36 37 38 40 41 43 44 46 47 49 50 53 55 57 59 61 63 64 65 66 66 66 66 65 64 62 61 60 58 56 53 51 49 47 44
30 31 32 32 33 33 34 35 37 38 39 41 42 43 44 46 48 49 52 54 56 58 60 62 63 64 64 65 65 66 65 64 63 61 59 57 55 52 49 46 44 41 38
30 31 32 32 33 34 35 36 37 39 40 41 42 44 45 47 49 51 53 55 57 59 61 62 62 63 64 65 65 65 64 63 61 58 55 53 50 47 44 42 39 36 33
30 31 32 33 34 34 36 37 38 40 41 42 43 45 46 48 50 52 55 57 58 60 61 61 62 63 64 64 64 63 62 60 56 53 51 49 46 43 40 37 34 31 28
30 31 32 33 34 35 36 38 39 40 41 43 44 46 47 49 51 54 56 57 59 60 61 62 63 63 63 63 62 61 58 55 52 49 46 44 41 38 36 33 30 27 25
31 32 33 33 35 36 37 38 40 41 42 44 45 47 48 51 53 55 56 58 59 61 62 63 63 63 62 61 59 57 54 51 48 44 42 39 37 34 31 29 26 24 22
32 32 33 34 35 37 38 39 41 42 43 44 46 48 50 52 54 56 57 59 60 61 62 62 62 61 60 58 55 52 49 46 43 40 38 36 34 31 28 26 24 22 20
32 33 34 35 36 37 39 40 42 43 44 45 47 49 51 53 54 56 58 59 60 61 62 61 60 58 56 54 51 48 45 42 40 38 36 33 30 28 26 24 22 20 18
33 34 35 36 37 39 40 41 42 43 45 46 48 51 53 54 56 57 58 59 60 61 61 60 58 56 53 50 47 44 41 39 38 36 33 30 28 26 24 22 21 18 16
34 35 36 37 39 40 41 42 43 45 46 48 50 53 54 56 57 57 58 60 61 61 60 57 55 53 49 46 43 41 39 38 36 33 30 28 26 24 22 21 19 16 14
34 36 37 39 40 41 42 43 45 46 48 50 52 54 55 56 57 58 59 60 60 59 57 55 52 48 45 42 40 39 37 35 33 31 29 26 24 22 21 19 17 15 13
36 37 38 40 41 42 43 44 46 48 50 52 54 55 55 57 58 59 60 59 58 56 54 51 48 44 41 39 38 37 35 33 31 29 27 24 22 20 19 17 15 13 12
37 38 39 41 42 43 44 46 48 50 51 53 54 56 57 58 59 59 59 57 55 52 50 47 43 40 38 37 36 34 32 30 29 27 24 22 20 18 17 15 13 12 11
38 39 40 41 43 44 46 47 49 51 52 54 56 57 57 58 58 58 56 54 51 49 47 44 41 39 37 35 34 32 30 29 27 24 22 20 18 17 15 13 12 12 11
Wind_Direction
267 267 268 269 270 272 273 275 276 277 279 280 281 283 285 287 289 291 292 294 296 297 298 299 299 300 301 301 301 301 301 301 301 301 301 300 300 299 299 298 298 297 296
266 267 268 269 270 272 273 274 275 277 279 280 282 284 285 287 289 291 293 295 296 297 298 299 300 301 301 301 301 302 302 302 302 302 302 301 301 300 299 299 299 298 297
266 267 268 269 270 271 272 273 275 277 279 280 282 284 286 288 289 291 293 295 297 298 298 299 300 301 302 302 302 302 302 303 303 303 303 302 301 300 300 300 300 300 299
266 267 268 269 270 271 272 274 276 277 279 280 282 284 287 289 290 292 294 296 297 298 299 300 301 302 302 302 303 303 303 303 304 304 304 303 302 301 301 301 301 301 300
266 267 267 268 269 271 273 275 277 278 279 282 284 286 288 290 291 293 294 296 297 298 300 301 302 303 303 303 303 304 304 304 304 304 304 303 303 302 302 302 302 302 301
265 266 267 268 270 271 273 276 277 279 281 284 285 287 289 290 292 293 294 296 297 299 300 301 302 303 303 304 304 305 305 305 305 305 304 304 304 304 303 303 303 303 302
265 266 267 268 269 271 274 276 278 280 283 285 286 288 289 291 292 293 295 297 299 300 301 302 303 303 304 305 305 306 306 306 306 306 306 306 305 304 304 304 304 304 303
265 266 267 269 270 273 275 277 279 281 284 286 287 289 290 292 293 295 297 298 300 301 302 302 303 304 305 306 306 307 307 307 306 306 306 306 305 305 305 305 305 305 305
265 266 268 270 272 275 276 278 281 283 285 286 288 290 292 293 295 296 298 299 300 301 302 303 304 306 306 307 307 308 308 308 307 307 307 307 306 306 306 306 306 306 306
266 267 269 271 273 276 278 280 282 284 285 287 290 292 293 295 296 297 298 300 301 302 303 305 306 307 307 308 309 309 309 308 308 308 308 307 308 307 307 307 307 306 306
266 268 270 272 275 278 280 282 283 284 287 289 291 293 294 296 297 298 299 301 302 303 304 305 306 308 308 309 309 309 310 310 310 309 308 308 308 308 308 307 307 307 307
266 269 271 274 277 279 281 282 284 286 288 290 292 294 295 296 297 299 301 302 304 305 306 307 307 308 309 309 310 310 310 310 310 310 310 310 309 309 309 308 308 308 308
267 270 273 275 278 280 282 284 286 288 290 292 293 295 296 297 299 301 302 304 305 306 307 308 308 308 309 310 310 310 311 311 311 311 311 310 310 310 309 309 309 309 308
269 272 275 277 279 281 283 285 288 290 292 293 295 296 297 299 300 302 304 305 306 307 308 309 309 309 310 311 311 311 311 311 311 311 310 310 310 310 310 310 310 309 309
271 274 276 278 280 283 285 287 290 292 293 295 296 297 299 300 302 303 305 307 308 309 309 309 310 310 311 311 311 311 311 311 311 311 311 311 311 311 310 310 310 310 309
273 276 278 280 282 285 287 290 292 293 295 296 297 299 300 302 304 305 307 308 309 310 310 310 311 311 312 312 312 312 312 312 311 311 311 311 311 310 310 311 310 310 309
275 277 280 282 284 287 289 292 294 295 296 297 299 301 302 304 306 307 309 310 310 310 311 311 312 312 312 312 312 313 313 313 312 311 311 311 311 311 310 310 310 310 309
277 279 282 284 286 289 292 294 295 296 298 299 301 302 304 306 308 309 310 311 311 311 311 312 312 312 313 313 313 313 313 313 313 312 312 312 312 311 310 310 309 309 307
279 281 283 286 289 291 294 295 296 298 299 301 302 304 306 308 309 310 311 311 312 312 312 313 313 313 313 313 313 313 313 314 313 313 312 312 311 310 309 308 308 307 304
281 283 285 288 291 293 295 297 297 299 300 302 304 306 307 309 310 311 312 312 312 313 313 313 313 313 313 313 313 313 313 313 313 313 312 311 310 309 307 307 307 305 302
282 285 287 290 293 296 297 298 298 300 302 304 305 307 308 309 310 311 312 312 313 314 314 314 314 313 313 313 312 312 312 312 312 312 311 309 308 307 306 305 304 302 297
284 286 289 292 295 297 298 298 300 301 303 305 307 308 309 310 311 312 312 313 314 314 314 314 314 313 313 312 311 311 311 311 311 311 310 308 306 304 303 303 301 297 292
285 288 291 294 296 297 298 299 301 303 305 306 307 309 310 310 311 312 312 313 314 314 313 313 314 313 312 311 311 311 311 311 310 309 308 306 304 302 301 300 297 293 287
287 289 292 295 297 298 299 301 303 304 306 307 308 309 310 311 312 312 313 313 313 313 313 313 313 312 311 310 311 311 311 310 309 308 307 304 302 300 299 296 291 287 283
288 290 293 295 297 299 300 302 303 305 306 308 309 310 310 311 312 313 313 313 313 312 312 312 311 310 309 310 310 310 310 309 308 307 305 302 299 298 296 291 284 281 278
289 292 294 297 299 300 301 302 304 306 307 308 309 310 311 312 313 313 313 313 312 312 311 310 309 309 309 309 309 308 307 307 307 305 302 298 296 295 290 283 279 276 273
Height
5718 5718 5718 5718 5717 5716 5716 5715 5713 5712 5711 5709 5707 5706 5703 5701 5698 5695 5692 5688 5685 5680 5676 5672 5667 5662 5657 5651 5646 5641 5635 5629 5625 5621 5613 5606 5599 5592 5585 5578 5571 5565 5558
5708 5709 5709 5709 5708 5708 5707 5706 5704 5703 5702 5700 5699 5697 5694 5692 5689 5686 5682 5679 5675 5670 5666 5661 5656 5651 5646 5640 5634 5628 5622 5616 5610 5606 5600 5591 5584 5576 5569 5561 5554 5546 5538
5700 5700 5700 5700 5699 5699 5698 5697 5696 5694 5693 5692 5690 5688 5685 5682 5679 5676 5672 5669 5664 5660 5655 5650 5645 5639 5634 5628 5622 5615 5609 5602 5595 5589 5583 5575 5567 5558 5551 5544 5535 5527 5518
5691 5691 5691 5691 5690 5690 5689 5688 5687 5686 5684 5682 5680 5678 5675 5673 5669 5666 5662 5658 5654 5649 5644 5639 5633 5627 5621 5615 5609 5602 5595 5588 5580 5573 5566 5558 5549 5540 5532 5525 5518 5508 5498
5682 5682 5682 5682 5681 5681 5680 5679 5678 5677 5675 5673 5671 5668 5666 5663 5659 5655 5652 5648 5643 5638 5633 5627 5621 5615 5608 5601 5594 5587 5580 5572 5564 5556 5548 5540 5532 5522 5514 5505 5497 5490 5480
5673 5674 5673 5673 5673 5672 5671 5670 5669 5668 5666 5664 5661 5659 5656 5653 5649 5645 5641 5637 5632 5627 5621 5615 5609 5602 5595 5587 5580 5572 5563 5554 5546 5538 5530 5521 5513 5503 5494 5485 5476 5469 5462
5665 5665 5665 5665 5664 5663 5663 5661 5660 5658 5656 5654 5652 5649 5646 5642 5638 5635 5630 5626 5621 5615 5609 5603 5596 5589 5581 5574 5566 5557 5547 5536 5527 5519 5511 5502 5493 5485 5475 5467 5457 5448 5441
5656 5656 5656 5656 5655 5655 5654 5652 5651 5649 5647 5644 5642 5639 5635 5632 5628 5624 5619 5614 5609 5603 5597 5590 5583 5576 5567 5559 5551 5542 5532 5521 5511 5501 5492 5483 5474 5464 5455 5447 5439 5432 5424
5648 5647 5647 5647 5647 5646 5644 5643 5641 5639 5637 5634 5631 5628 5625 5621 5617 5612 5607 5602 5597 5591 5584 5577 5569 5562 5554 5545 5536 5527 5517 5506 5495 5484 5475 5465 5455 5446 5437 5429 5421 5414 5408
5639 5639 5639 5638 5638 5637 5635 5634 5632 5629 5627 5624 5621 5618 5614 5610 5605 5601 5596 5591 5585 5579 5572 5564 5556 5547 5538 5528 5519 5510 5501 5491 5480 5470 5459 5449 5439 5429 5420 5411 5404 5397 5391
5630 5630 5630 5629 5629 5627 5626 5624 5622 5620 5617 5614 5611 5607 5603 5599 5594 5589 5583 5578 5572 5565 5558 5550 5542 5532 5523 5513 5503 5493 5483 5474 5464 5454 5445 5434 5424 5414 5405 5396 5389 5382 5376
5622 5622 5621 5621 5619 5618 5616 5615 5612 5610 5607 5604 5600 5596 5591 5587 5582 5577 5571 5565 5558 5552 5545 5536 5527 5518 5508 5498 5487 5477 5467 5457 5448 5439 5430 5420 5410 5401 5392 5384 5377 5370 5364
5613 5613 5612 5611 5610 5609 5607 5605 5602 5600 5597 5593 5589 5585 5580 5575 5570 5564 5559 5552 5545 5538 5530 5521 5512 5502 5492 5482 5472 5462 5452 5442 5433 5424 5415 5406 5397 5388 5380 5373 5366 5359 5353
5604 5604 5603 5602 5601 5599 5597 5595 5592 5589 5586 5582 5578 5574 5569 5564 5558 5552 5546 5539 5532 5524 5516 5507 5497 5487 5477 5467 5457 5447 5437 5427 5418 5410 5401 5393 5384 5376 5369 5362 5356 5350 5345
5595 5595 5594 5593 5591 5589 5587 5584 5581 5578 5575 5571 5567 5562 5557 5552 5546 5540 5533 5526 5518 5510 5501 5492 5482 5473 5463 5453 5443 5433 5423 5413 5404 5395 5387 5380 5372 5365 5358 5352 5347 5342 5338
5586 5586 5584 5583 5581 5579 5577 5574 5570 5567 5563 5559 5555 5551 5545 5540 5533 5527 5520 5512 5503 5495 5486 5477 5468 5458 5449 5439 5429 5419 5409 5400 5391 5383 5376 5369 5362 5355 5350 5344 5339 5335 5331
5577 5576 5575 5573 5571 5569 5566 5563 5560 5556 5552 5548 5543 5538 5533 5527 5520 5513 5506 5497 5489 5480 5471 5462 5453 5443 5434 5424 5415 5406 5397 5388 5379 5372 5365 5359 5352 5347 5342 5337 5333 5329 5326
5568 5567 5565 5563 5561 5559 5556 5552 5549 5545 5541 5536 5531 5526 5520 5514 5507 5499 5492 5484 5475 5465 5456 5447 5438 5428 5419 5410 5401 5393 5384 5376 5369 5362 5355 5350 5344 5339 5335 5331 5327 5324 5321
5558 5557 5555 5553 5551 5548 5545 5542 5538 5534 5529 5524 5519 5513 5507 5500 5493 5485 5477 5469 5461 5451 5442 5432 5423 5414 5405 5397 5389 5381 5373 5366 5359 5353 5347 5342 5337 5333 5329 5325 5322 5319 5316
5548 5547 5545 5543 5540 5537 5534 5531 5527 5522 5518 5513 5507 5501 5495 5488 5480 5472 5463 5455 5446 5437 5428 5418 5409 5400 5392 5384 5377 5370 5363 5356 5350 5344 5339 5334 5330 5326 5323 5320 5317 5314 5312
5538 5537 5535 5532 5530 5527 5523 5519 5515 5511 5506 5500 5494 5488 5481 5474 5467 5459 5450 5441 5432 5423 5414 5405 5396 5388 5380 5373 5366 5359 5353 5347 5342 5336 5332 5327 5323 5320 5317 5314 5312 5310 5308
5528 5526 5524 5522 5519 5515 5512 5508 5503 5499 5493 5488 5481 5475 5467 5460 5452 5444 5436 5427 5418 5409 5400 5392 5384 5376 5368 5362 5355 5349 5344 5339 5334 5329 5324 5320 5317 5314 5312 5309 5307 5305 5304
5518 5516 5514 5511 5508 5504 5500 5496 5491 5486 5481 5475 5468 5461 5453 5446 5438 5430 5422 5413 5404 5395 5387 5379 5371 5364 5357 5351 5346 5340 5335 5330 5326 5321 5318 5314 5311 5308 5306 5304 5303 5302 5301
5507 5505 5503 5500 5496 5492 5488 5484 5479 5473 5468 5461 5454 5447 5440 5432 5424 5416 5408 5399 5390 5382 5374 5367 5360 5353 5347 5342 5337 5332 5327 5322 5318 5314 5311 5308 5305 5303 5301 5300 5299 5298 5298
5497 5494 5491 5488 5484 5480 5476 5471 5466 5460 5454 5448 5441 5433 5426 5418 5410 5402 5393 5385 5377 5370 5362 5355 5349 5343 5338 5333 5328 5323 5318 5314 5310 5307 5304 5302 5300 5298 5297 5296 5295 5295 5295
5486 5483 5480 5476 5472 5468 5463 5458 5453 5447 5441 5434 5427 5419 5412 5404 5396 5388 5380 5372 5365 5358 5351 5345 5339 5334 5329 5324 5319 5315 5311 5307 5303 5300 5298 5297 5295 5294 5293 5292 5292 5292 5292